www.pogodaiklimat.ru

Погода и климат >> Архив погоды >> Россия >> Бурятия >> Романовка


АРХИВ ПОГОДЫ в Романовке

Время (UTC), дата Ветер
(напр.,м/с)
 
Видим.   Явления Облачность Т
(С)
Тd
(С)
f
(%)
Тe
(С)
Тes
(С)
Комфортность P
(гПа)
Po
(гПа)
Тmin
(С)
Tmax
(С)
R
(мм)
R24
(мм)
S
(см)
03 13.08 З 1 50 км 8/4 600 м
[Cb cap Ac lent Ci fib]
+17.4 +5.0 44 +18 +24 1005.8 903.9
06 13.08 Ю 1 50 км 4/3 1000 м
[Cu med, cong Ci fib]
+19.8 +2.2 31 +21 +31 комфорт 1003.6 902.6
09 13.08 Ю 2 50 км 4/4 600 м
[Cb cap]
+19.9 +4.4 36 +21 +23 комфорт 1003.0 902.2
12 13.08 ЮЗ 2 50 км 4/3 600 м
[Cb cap Ci fib]
+13.8 +6.4 61 +13 +13 1005.7 902.7 +20.8
15 13.08 Ю 1 н/о 3/3 600 м
[Cb cap]
+10.6 +6.7 77 +10 +10 1006.9 902.6
18 13.08 штиль 0 н/о 8/8 600 м
[Cb cap]
+9.6 +7.9 89 +9 +9 1006.9 902.3
21 13.08 СЗ 2 н/о в посл. час ливневой дождь 10/10 600 м
[Cb cap]
+9.5 +8.6 94 +8 +8 1007.4 902.8
00 14.08 СВ 1 20 км слаб. ливневой дождь 10/10 600 м
[Cb cap]
+9.6 +8.8 95 +9 +9 1008.1 903.5 +9.1 4
03 14.08 С 1 20 км слаб. ливневой дождь 10/10 600 м
[Cb cap]
+10.9 +9.3 90 +11 +11 1008.2 904.0
06 14.08 С 1 50 км в посл. час ливневой дождь 10/10 600 м
[Cb cap]
+14.6 +9.4 71 +15 +15 1006.0 903.3
09 14.08 СВ 1 50 км 8/5 600 м
[Cb cap Ac lent Ci fib]
+16.3 +8.3 59 +17 +19 1005.1 903.0
12 14.08 СЗ 1 50 км 3/3 600 м
[Cb cap Ci fib]
+12.5 +9.5 82 +13 +13 1006.8 903.3 +17.3 1
15 14.08 ЮЗ 1 н/о 3/0
[Ci fib]
+6.4 +5.8 96 +5 +5 1010.5 904.4
18 14.08 штиль 0 н/о туман на расстоянии ясно +4.8 +4.4 97 +4 +4 1011.8 905.0
21 14.08 штиль 0 н/о туман на расстоянии ясно +2.9 +2.6 98 +2 +2 1013.7 905.9
00 15.08 ЮЗ 1 2000 м туман на расстоянии ясно +4.3 +4.0 98 +3 +7 1013.9 906.6 +2.0
03 15.08 СВ 1 50 км 3/1 1000 м
[Cu med, cong Ci fib]
+17.4 +7.2 51 +18 +30 опасность
простуды
1008.2 906.1
06 15.08 С 2 50 км 4/4 1000 м
[Cb cap]
+19.6 +3.7 35 +21 +28 комфорт 1006.6 905.3
09 15.08 С 1 50 км 3/3 1000 м
[Cb cap]
+20.4 +2.2 30 +22 +25 комфорт 1006.0 905.0
12 15.08 СЗ 2 50 км 5/5 1000 м
[Cb cap]
+15.1 +6.6 57 +15 +15 1008.8 905.9 +20.8
15 15.08 штиль 0 н/о ясно +8.2 +6.3 88 +7 +7 1012.0 906.3
18 15.08 штиль 0 н/о ясно +4.4 +3.8 96 +3 +3 1014.6 907.3
21 15.08 штиль 0 н/о туман на расстоянии ясно +1.0 +0.8 99 -0 -0 1016.3 907.5
00 16.08 штиль 0 2000 м туман на расстоянии ясно +5.8 +5.4 97 +5 +10 1014.4 907.6 +0.8
03 16.08 С 1 50 км 1/1 1000 м
[Cu med, cong]
+17.1 +7.4 53 +18 +30 опасность
простуды
1009.5 907.2
06 16.08 С 2 50 км 5/5 600 м
[Cb cap]
+19.4 +6.1 42 +21 +26 комфорт 1007.2 905.8
09 16.08 СЗ 1 50 км 5/5 600 м
[Cb cap]
+19.9 +4.9 37 +22 +24 комфорт 1006.1 905.0
12 16.08 СЗ 2 50 км 5/3 1000 м
[Sc diur, vesp Ac trans]
+15.0 +7.3 60 +15 +15 1008.3 905.4 +20.9
15 16.08 штиль 0 н/о 1/1 1000 м
[Sc diur, vesp]
+7.4 +6.2 92 +6 +6 1011.6 905.7
18 16.08 штиль 0 н/о ясно +5.2 +4.6 96 +4 +4 1012.4 905.6
21 16.08 штиль 0 н/о туман на расстоянии ясно +3.0 +2.7 98 +2 +2 1013.2 905.5
00 17.08 ЮЗ 1 н/о туман на расстоянии ясно +5.6 +5.2 97 +4 +8 1012.2 905.6 +2.5
03 17.08 В 1 50 км 3/3 1000 м
[Cb calv]
+18.2 +7.0 48 +19 +29 1005.8 904.2
06 17.08 СЗ 1 50 км 8/5 600 м
[Cb cap Ac trans]
+21.1 +5.0 35 +22 +26 комфорт 1002.9 902.5
09 17.08 С 1 50 км 8/5 600 м
[Cb cap Ac trans]
+21.2 +4.7 34 +22 +23 комфорт 1002.0 901.7
12 17.08 З 1 50 км 8/3 1000 м
[Sc diur, vesp Ac trans]
+13.0 +8.1 72 +13 +13 1005.3 902.0 +22.1
15 17.08 штиль 0 н/о 10/0
[Ac trans Ci fib]
+9.7 +7.8 88 +9 +9 1007.0 902.4
18 17.08 штиль 0 н/о 8/0
[Ac trans Ci fib]
+6.5 +5.9 96 +5 +5 1008.5 902.6
21 17.08 З 1 н/о 10/0
[Ac trans Ci fib]
+5.2 +4.6 96 +4 +4 1009.6 903.2
00 18.08 ЮЗ 2 50 км 10/0
[Ac trans Ci fib]
+8.1 +6.4 89 +6 +8 1009.2 903.8 +4.4
03 18.08 Ю 1 50 км 10/3 600 м
[Cb cap Ac und]
+16.8 +9.5 62 +18 +21 1006.1 904.1
06 18.08 З 2 50 км 8/6 600 м
[Cb cap Ci fib]
+21.1 +6.2 38 +22 +26 комфорт 1003.2 902.8
09 18.08 СЗ 3 50 км 6/4 600 м
[Cb cap Ac lent Ci fib]
+21.3 +4.4 33 +22 +23 комфорт 1003.0 902.6
12 18.08 ЮВ 2 50 км 9/8 600 м
[Cb cap Ci fib]
+16.5 +8.5 59 +17 +17 1005.8 903.7 +22.6
15 18.08 С 1 н/о 6/3 600 м
[Cb cap Ci fib]
+10.9 +7.8 81 +11 +11 1009.3 905.0
18 18.08 ЮЗ 1 н/о 3/3 600 м
[Cb cap Ci fib]
+5.9 +5.3 96 +5 +5 1011.9 905.4
21 18.08 штиль 0 н/о туман на расстоянии ясно +3.6 +3.2 97 +2 +2 1013.3 905.8
00 19.08 штиль 0 2000 м туман на расстоянии ясно +5.5 +5.1 97 +4 +9 1013.0 906.3 +3.0
03 19.08 СВ 1 50 км 3/0
[Ci fib]
+16.7 +7.3 54 +18 +30 опасность
простуды
1007.3 905.1
06 19.08 Ю 1 50 км 8/4 1000 м
[Cb calv Ci fib]
+21.2 +4.3 33 +21 +28 комфорт 1004.1 903.6
09 19.08 ЮЗ 1 50 км 10/3 600 м
[Cb cap Ac und]
+20.7 +2.5 30 +22 +23 комфорт 1003.3 902.6
12 19.08 Ю 1 50 км 10/8 600 м
[Cb cap Ci fib]
+17.4 +8.3 55 +18 +18 1004.2 902.5 +21.8
15 19.08 З 1 н/о 10/10 600 м
[Cb cap]
+12.7 +8.6 76 +13 +13 1006.2 902.8
18 19.08 С 1 н/о 4/3 600 м
[Cb cap Ci fib]
+9.4 +7.7 89 +9 +9 1007.8 903.1
21 19.08 штиль 0 н/о 3/3 600 м
[Cb cap]
+6.5 +5.9 96 +5 +5 1009.0 903.1

 

Местоположение метеостанции Романовка (Бурятия, Россия): широта 53.20 долгота 112.70 высота над уровнем моря 923 м.

В архиве по умолчанию представлена погода в Романовке за последнюю неделю. Архивные данные за месяц целиком и за предыдущие месяцы, начиная с января 2011 года, Вы можете получить, выбрав интересующий диапазон дат из раскрывающегося списка и нажав кнопку "Ввод!".


*Определитесь, кто Вы:
робот инопланетянин человек

Внимание! Время в таблицах - всемирное. Для получения местного времени необходимо прибавить поправку, которая равна 8 ч.

Смотрите также архив погоды в соседних городах и на ближайших метеорологических станциях:

Погода в Телембе (Бурятия, Россия) (63 км)
Погода в Усть-Джилинде (Бурятия, Россия) (74 км)
Погода в Бургени (Забайкальский край, Россия) (109 км)
Погода в Сосново-Озерском (Бурятия, Россия) (110 км)
Погода в Беклемишево (Забайкальский край, Россия) (119 км)
Погода в Усть-Зазе (Бурятия, Россия) (130 км)
Погода в Чите (Забайкальский край, Россия) (133 км)
Погода в Багдарине (Бурятия, Россия) (147 км)
Погода в Троицком Прииске (Бурятия, Россия) (156 км)
Погода в Могзоне (Забайкальский край, Россия) (170 км)

Пояснения к столбцам:

Ветер - указаны скорость ветра в м/с - средняя за 10 мин, порывы в срок и между сроками (в фигурных скобках) и направление, откуда дует ветер: С - северный, СВ - северо-восточный, В - восточный, ЮВ - юго-восточный, Ю - южный, ЮЗ - юго-западный, З - западный, СЗ - северо-западный.
Видимость - горизонтальная дальность видимости в метрах или километрах. При видимости от 1 до 10 км при отсутствии осадков обычно наблюдается дымка, при ухудшении видимости до 1 км и менее - туман. В сухую погоду видимость может ухудшаться дымом, пылью или мглою.
Явления - указаны атмосферные явления, наблюдавшиеся в срок или в последний час перед сроком; фигурными скобками обозначены явления, наблюдавшиеся между сроками (за 1-3 часа до срока); квадратными скобками обозначены град или гололедные отложения с указанием их диаметра в мм.
Облачность - указаны через наклонную черту общая и нижняя облачность в баллах и высота нижней границы облаков в метрах; квадратными скобками обозначены формы облаков: Ci - перистые, Cs - перисто-слоистые, Cc - перисто-кучевые, Ac - высококучевые, As - высокослоистые, Sc - слоисто-кучевые, Ns - слоисто-дождевые, Cu - кучевые, Cb - кучево-дождевые. Подробнее классификацию облаков см. в Атласе облаков (PDF).
T - Температура воздуха - температура, измеренная на высоте 2 м над землей.
Td - Температура точки росы - температура, при понижении до которой содержащийся в воздухе водяной пар достигнет насыщения.
f - Относительная влажность воздуха - влажноcть воздуха, измеренная на высоте 2 м над землей.
Te - Эффективная температура - температура, которую ощущает одетый по сезону человек в тени. Характеристика душности погоды. При расчете учитывается влияние влажности воздуха и скорости ветра на теплоощущения человека.
Tes - Эффективная температура на солнце - температура, которую ощущает человек, с поправкой на солнечный нагрев. Характеристика знойности погоды. Зависит от высоты солнца над горизонтом, облачности и скорости ветра. Ночью, в пасмурную погоду, а также при ветре 12 м/с и более поправка равна нулю.
P - Атмосферное давление - приведенное к уровню моря атмосферное давление.
Po - Атмосферное давление - измеренное на уровне метеостанции атмосферное давление.
Tmin - Минимальная температура - минимум температуры воздуха на высоте 2 м над землей.
Tmax - Максимальная температура - максимум температуры воздуха на высоте 2 м над землей.
R - Количество осадков - Количество выпавших осадков за период времени, мм. При наведении курсора мыши на число - период времени, за который выпало указанное количество осадков.
R24 - Количество осадков - Количество выпавших осадков за 24 часа, мм.
S - Снежный покров - Высота снежного покрова, см. При наведении курсора мыши на число - состояние снежного покрова и степень покрытия местности в баллах.